Time,TemperatureF,DewpointF,PressureIn,WindDirection,WindDirectionDegrees,WindSpeedMPH,WindSpeedGustMPH,Humidity,HourlyPrecipIn,Conditions,Clouds,dailyrainin,SoftwareType,DateUTC
2013-07-29 00:02:00,57.0,53.0,30.02,South,175,0.0,0.0,86,0.00,,,0.13,,2013-07-29 05:02:00,
2013-07-29 00:22:00,56.0,52.0,30.02,South,175,0.0,0.0,87,0.00,,,0.13,,2013-07-29 05:22:00,
2013-07-29 00:32:00,56.0,52.0,30.01,South,175,0.0,0.0,88,0.00,,,0.12,,2013-07-29 05:32:00,
2013-07-29 00:53:00,55.0,52.0,30.01,South,175,0.0,0.0,89,0.00,,,0.12,,2013-07-29 05:53:00,
2013-07-29 01:02:00,54.0,51.0,30.01,South,175,0.0,0.0,89,0.00,,,0.12,,2013-07-29 06:02:00,
2013-07-29 01:12:00,54.0,51.0,30.02,South,175,0.0,0.0,90,0.00,,,0.12,,2013-07-29 06:12:00,
2013-07-29 01:22:00,54.0,51.0,30.02,South,175,0.0,0.0,90,0.00,,,0.12,,2013-07-29 06:22:00,
2013-07-29 01:32:00,53.0,50.0,30.02,South,175,0.0,0.0,90,0.00,,,0.08,,2013-07-29 06:32:00,
2013-07-29 01:43:00,53.0,50.0,30.02,South,175,0.0,0.0,90,0.00,,,0.08,,2013-07-29 06:43:00,
2013-07-29 01:52:00,53.0,50.0,30.02,South,175,0.0,0.0,90,0.00,,,0.08,,2013-07-29 06:52:00,
2013-07-29 02:02:00,52.0,49.0,30.03,South,175,0.0,0.0,91,0.00,,,0.08,,2013-07-29 07:02:00,
2013-07-29 02:12:00,52.0,49.0,30.03,South,175,0.0,0.0,91,0.00,,,0.08,,2013-07-29 07:12:00,
2013-07-29 02:22:00,52.0,49.0,30.03,South,175,0.0,0.0,91,0.00,,,0.08,,2013-07-29 07:22:00,
2013-07-29 02:33:00,52.0,49.0,30.03,South,175,0.0,1.0,91,0.00,,,0.05,,2013-07-29 07:33:00,
2013-07-29 02:43:00,51.0,49.0,30.03,South,175,0.0,0.0,92,0.00,,,0.05,,2013-07-29 07:43:00,
2013-07-29 02:53:00,51.0,49.0,30.03,South,175,0.0,0.0,92,0.00,,,0.05,,2013-07-29 07:53:00,
2013-07-29 03:02:00,51.0,49.0,30.03,South,175,0.0,0.0,93,0.00,,,0.05,,2013-07-29 08:02:00,
2013-07-29 03:12:00,52.0,50.0,30.04,South,175,0.0,3.0,94,0.00,,,0.05,,2013-07-29 08:12:00,
2013-07-29 03:22:00,52.0,50.0,30.04,South,175,0.0,3.0,94,0.00,,,0.05,,2013-07-29 08:22:00,
2013-07-29 03:33:00,52.0,50.0,30.04,SSW,204,0.0,2.0,94,0.00,,,0.02,,2013-07-29 08:33:00,
2013-07-29 03:42:00,52.0,50.0,30.03,WSW,238,0.0,3.0,94,0.00,,,0.02,,2013-07-29 08:42:00,
2013-07-29 03:52:00,52.0,50.0,30.03,WSW,238,0.0,3.0,94,0.00,,,0.02,,2013-07-29 08:52:00,
2013-07-29 04:02:00,52.0,50.0,30.04,WSW,238,0.0,1.0,94,0.00,,,0.02,,2013-07-29 09:02:00,
2013-07-29 04:12:00,52.0,50.0,30.04,WSW,238,0.0,0.0,93,0.00,,,0.02,,2013-07-29 09:12:00,
2013-07-29 04:22:00,52.0,50.0,30.04,WSW,238,0.0,0.0,93,0.00,,,0.02,,2013-07-29 09:22:00,
2013-07-29 04:33:00,52.0,50.0,30.04,WSW,238,0.0,0.0,93,0.00,,,0.01,,2013-07-29 09:33:00,
2013-07-29 04:43:00,52.0,50.0,30.05,WSW,238,0.0,1.0,93,0.00,,,0.01,,2013-07-29 09:43:00,
2013-07-29 04:53:00,52.0,50.0,30.05,WSW,238,0.0,1.0,93,0.00,,,0.01,,2013-07-29 09:53:00,
2013-07-29 05:04:00,52.0,50.0,30.05,WSW,238,0.0,1.0,94,0.00,,,0.01,,2013-07-29 10:04:00,
2013-07-29 05:14:00,52.0,50.0,30.05,WSW,238,0.0,0.0,94,0.00,,,0.01,,2013-07-29 10:14:00,
2013-07-29 05:25:00,52.0,50.0,30.05,WSW,238,0.0,0.0,94,0.00,,,0.01,,2013-07-29 10:25:00,
2013-07-29 05:37:00,51.0,49.0,30.06,WSW,238,0.0,0.0,94,0.00,,,0.00,,2013-07-29 10:37:00,
2013-07-29 05:48:00,51.0,49.0,30.06,WSW,238,0.0,1.0,94,0.00,,,0.00,,2013-07-29 10:48:00,
2013-07-29 05:53:00,51.0,49.0,30.06,WSW,238,0.0,1.0,94,0.00,,,0.00,,2013-07-29 10:53:00,
2013-07-29 06:05:00,51.0,49.0,30.06,WSW,238,0.0,0.0,94,0.00,,,0.00,,2013-07-29 11:05:00,
2013-07-29 06:15:00,51.0,49.0,30.07,WSW,238,0.0,0.0,93,0.00,,,0.00,,2013-07-29 11:15:00,
2013-07-29 06:24:00,51.0,49.0,30.07,WSW,238,0.0,0.0,93,0.00,,,0.00,,2013-07-29 11:24:00,
2013-07-29 06:36:00,50.0,48.0,30.07,WSW,238,0.0,0.0,93,0.00,,,0.00,,2013-07-29 11:36:00,
2013-07-29 06:44:00,50.0,48.0,30.07,WSW,238,0.0,0.0,93,0.00,,,0.00,,2013-07-29 11:44:00,
2013-07-29 06:55:00,50.0,48.0,30.07,WSW,238,0.0,0.0,93,0.00,,,0.00,,2013-07-29 11:55:00,
2013-07-29 07:09:00,50.0,48.0,30.07,West,265,0.0,0.0,94,0.00,,,0.00,,2013-07-29 12:09:00,
2013-07-29 07:15:00,50.0,49.0,30.07,South,182,0.0,0.0,95,0.00,,,0.00,,2013-07-29 12:15:00,
2013-07-29 07:26:00,50.0,49.0,30.07,South,182,0.0,0.0,95,0.00,,,0.00,,2013-07-29 12:26:00,
2013-07-29 07:35:00,52.0,51.0,30.08,West,269,0.0,3.0,96,0.00,,,0.00,,2013-07-29 12:35:00,
2013-07-29 07:55:00,53.0,52.0,30.08,West,275,1.0,4.0,97,0.00,,,0.00,,2013-07-29 12:55:00,
2013-07-29 08:17:00,56.0,55.0,30.07,SW,216,0.0,3.0,95,0.00,,,0.00,,2013-07-29 13:17:00,
2013-07-29 08:36:00,59.0,56.0,30.07,SW,214,1.0,3.0,90,0.00,,,0.00,,2013-07-29 13:36:00,
2013-07-29 08:44:00,62.0,57.0,30.08,West,263,0.0,4.0,84,0.00,,,0.00,,2013-07-29 13:44:00,
2013-07-29 08:54:00,62.0,57.0,30.08,West,263,0.0,4.0,84,0.00,,,0.00,,2013-07-29 13:54:00,
2013-07-29 09:12:00,64.0,58.0,30.08,SSW,210,1.0,3.0,80,0.00,,,0.00,,2013-07-29 14:12:00,
2013-07-29 09:28:00,64.0,58.0,30.08,SSW,210,1.0,3.0,80,0.00,,,0.00,,2013-07-29 14:28:00,
2013-07-29 09:35:00,66.0,58.0,30.08,West,265,0.0,2.0,75,0.00,,,0.00,,2013-07-29 14:35:00,
2013-07-29 09:55:00,67.0,58.0,30.08,WSW,252,1.0,4.0,74,0.00,,,0.00,,2013-07-29 14:55:00,
2013-07-29 10:08:00,68.0,56.0,30.08,WSW,251,0.0,2.0,66,0.00,,,0.00,,2013-07-29 15:08:00,
2013-07-29 10:14:00,69.0,57.0,30.08,WSW,251,0.0,2.0,66,0.00,,,0.00,,2013-07-29 15:14:00,
2013-07-29 10:24:00,69.0,57.0,30.08,WSW,251,0.0,2.0,66,0.00,,,0.00,,2013-07-29 15:24:00,
2013-07-29 10:37:00,70.0,54.0,30.08,WSW,251,0.0,2.0,57,0.00,,,0.00,,2013-07-29 15:37:00,
2013-07-29 10:45:00,71.0,54.0,30.08,WSW,251,0.0,2.0,56,0.00,,,0.00,,2013-07-29 15:45:00,
2013-07-29 10:54:00,71.0,54.0,30.08,WSW,251,0.0,2.0,56,0.00,,,0.00,,2013-07-29 15:54:00,
2013-07-29 11:07:00,71.0,53.0,30.09,ENE,61,0.0,3.0,53,0.00,,,0.00,,2013-07-29 16:07:00,
2013-07-29 11:13:00,72.0,56.0,30.09,ENE,61,0.0,1.0,57,0.00,,,0.00,,2013-07-29 16:13:00,
2013-07-29 11:24:00,72.0,56.0,30.09,ENE,61,0.0,1.0,57,0.00,,,0.00,,2013-07-29 16:24:00,
2013-07-29 11:38:00,73.0,57.0,30.09,WSW,244,0.0,3.0,57,0.00,,,0.00,,2013-07-29 16:38:00,
2013-07-29 11:55:00,73.0,55.0,30.09,NNW,340,0.0,2.0,53,0.00,,,0.00,,2013-07-29 16:55:00,
2013-07-29 12:07:00,72.0,55.0,30.09,SE,144,1.0,4.0,55,0.00,,,0.00,,2013-07-29 17:07:00,
2013-07-29 12:13:00,73.0,57.0,30.09,WNW,292,1.0,6.0,58,0.00,,,0.00,,2013-07-29 17:13:00,
2013-07-29 12:24:00,73.0,57.0,30.09,WNW,292,1.0,6.0,58,0.00,,,0.00,,2013-07-29 17:24:00,
2013-07-29 12:44:00,74.0,58.0,30.09,NW,311,0.0,6.0,57,0.00,,,0.00,,2013-07-29 17:44:00,
2013-07-29 12:59:00,74.0,58.0,30.09,NW,311,0.0,6.0,57,0.00,,,0.00,,2013-07-29 17:59:00,
2013-07-29 13:06:00,73.0,57.0,30.09,North,351,0.0,2.0,58,0.00,,,0.00,,2013-07-29 18:06:00,
2013-07-29 13:15:00,74.0,56.0,30.08,North,355,0.0,2.0,54,0.00,,,0.00,,2013-07-29 18:15:00,
2013-07-29 13:27:00,74.0,56.0,30.08,North,355,0.0,2.0,54,0.00,,,0.00,,2013-07-29 18:27:00,
2013-07-29 13:35:00,74.0,56.0,30.08,North,355,0.0,2.0,54,0.00,,,0.00,,2013-07-29 18:35:00,
2013-07-29 13:45:00,73.0,56.0,30.08,WSW,249,1.0,7.0,55,0.00,,,0.00,,2013-07-29 18:45:00,
2013-07-29 13:59:00,73.0,56.0,30.08,WSW,249,1.0,7.0,55,0.00,,,0.00,,2013-07-29 18:59:00,
2013-07-29 14:15:00,73.0,56.0,30.07,SSW,198,1.0,4.0,55,0.00,,,0.00,,2013-07-29 19:15:00,
2013-07-29 14:36:00,74.0,56.0,30.07,South,176,2.0,5.0,54,0.00,,,0.00,,2013-07-29 19:36:00,
2013-07-29 14:45:00,74.0,56.0,30.07,South,176,2.0,5.0,54,0.00,,,0.00,,2013-07-29 19:45:00,
2013-07-29 14:59:00,74.0,58.0,30.07,SSW,212,0.0,4.0,58,0.00,,,0.00,,2013-07-29 19:59:00,
2013-07-29 15:07:00,73.0,57.0,30.07,SSW,206,0.0,3.0,58,0.00,,,0.00,,2013-07-29 20:07:00,
2013-07-29 15:15:00,73.0,57.0,30.07,SSW,206,0.0,3.0,58,0.00,,,0.00,,2013-07-29 20:15:00,
2013-07-29 15:24:00,73.0,58.0,30.07,WNW,283,0.0,3.0,59,0.00,,,0.00,,2013-07-29 20:24:00,
2013-07-29 15:35:00,75.0,60.0,30.06,NE,40,1.0,6.0,60,0.00,,,0.00,,2013-07-29 20:35:00,
2013-07-29 15:47:00,75.0,60.0,30.06,NE,40,1.0,6.0,60,0.00,,,0.00,,2013-07-29 20:47:00,
2013-07-29 15:58:00,74.0,61.0,30.07,ENE,64,0.0,3.0,63,0.00,,,0.00,,2013-07-29 20:58:00,
2013-07-29 16:24:00,75.0,60.0,30.06,NE,44,0.0,1.0,60,0.00,,,0.00,,2013-07-29 21:24:00,
2013-07-29 16:35:00,75.0,58.0,30.06,NNE,13,0.0,3.0,56,0.00,,,0.00,,2013-07-29 21:35:00,
2013-07-29 16:47:00,75.0,58.0,30.06,NNE,13,0.0,3.0,56,0.00,,,0.00,,2013-07-29 21:47:00,
2013-07-29 17:00:00,75.0,59.0,30.06,NNE,28,1.0,4.0,57,0.00,,,0.00,,2013-07-29 22:00:00,
2013-07-29 17:16:00,73.0,57.0,30.06,NE,45,1.0,3.0,57,0.00,,,0.00,,2013-07-29 22:16:00,
2013-07-29 17:25:00,73.0,56.0,30.06,NE,45,0.0,2.0,55,0.00,,,0.00,,2013-07-29 22:25:00,
2013-07-29 17:44:00,72.0,55.0,30.05,North,355,0.0,4.0,56,0.00,,,0.00,,2013-07-29 22:44:00,
2013-07-29 17:57:00,71.0,56.0,30.05,NE,44,0.0,3.0,59,0.00,,,0.00,,2013-07-29 22:57:00,
2013-07-29 18:05:00,70.0,55.0,30.05,NE,46,0.0,3.0,60,0.00,,,0.00,,2013-07-29 23:05:00,
2013-07-29 18:14:00,70.0,55.0,30.05,NE,46,0.0,3.0,60,0.00,,,0.00,,2013-07-29 23:14:00,
2013-07-29 18:26:00,70.0,56.0,30.06,NE,36,1.0,3.0,61,0.00,,,0.00,,2013-07-29 23:26:00,
2013-07-29 18:35:00,70.0,57.0,30.06,NE,35,0.0,3.0,64,0.00,,,0.00,,2013-07-29 23:35:00,
2013-07-29 18:44:00,70.0,57.0,30.06,NE,35,0.0,3.0,64,0.00,,,0.00,,2013-07-29 23:44:00,
2013-07-29 18:57:00,69.0,55.0,30.06,ENE,76,0.0,3.0,61,0.00,,,0.00,,2013-07-29 23:57:00,
2013-07-29 19:07:00,69.0,54.0,30.05,East,86,0.0,4.0,58,0.00,,,0.00,,2013-07-30 00:07:00,
2013-07-29 19:17:00,69.0,54.0,30.05,East,86,0.0,4.0,58,0.00,,,0.00,,2013-07-30 00:17:00,
2013-07-29 19:25:00,69.0,55.0,30.06,East,92,0.0,2.0,60,0.00,,,0.00,,2013-07-30 00:25:00,
2013-07-29 19:34:00,68.0,54.0,30.06,ENE,71,0.0,1.0,61,0.00,,,0.00,,2013-07-30 00:34:00,
2013-07-29 19:47:00,68.0,54.0,30.06,ENE,71,0.0,1.0,61,0.00,,,0.00,,2013-07-30 00:47:00,
2013-07-29 19:56:00,68.0,54.0,30.06,ENE,71,0.0,2.0,61,0.00,,,0.00,,2013-07-30 00:56:00,
2013-07-29 20:05:00,67.0,54.0,30.07,ENE,71,0.0,2.0,62,0.00,,,0.00,,2013-07-30 01:05:00,
2013-07-29 20:16:00,67.0,54.0,30.07,ENE,71,0.0,2.0,62,0.00,,,0.00,,2013-07-30 01:16:00,
2013-07-29 20:23:00,67.0,53.0,30.06,ENE,71,0.0,2.0,60,0.00,,,0.00,,2013-07-30 01:23:00,
2013-07-29 20:44:00,67.0,53.0,30.06,ENE,71,0.0,1.0,60,0.00,,,0.00,,2013-07-30 01:44:00,
2013-07-29 21:05:00,65.0,53.0,30.06,ENE,71,0.0,1.0,66,0.00,,,0.00,,2013-07-30 02:05:00,
2013-07-29 21:13:00,65.0,53.0,30.06,ENE,71,0.0,1.0,66,0.00,,,0.00,,2013-07-30 02:13:00,
2013-07-29 21:24:00,64.0,57.0,30.07,ENE,71,0.0,0.0,77,0.00,,,0.00,,2013-07-30 02:24:00,
2013-07-29 21:37:00,63.0,56.0,30.07,ENE,71,0.0,0.0,79,0.00,,,0.00,,2013-07-30 02:37:00,
2013-07-29 21:45:00,63.0,56.0,30.07,ENE,71,0.0,0.0,79,0.00,,,0.00,,2013-07-30 02:45:00,
2013-07-29 21:56:00,63.0,57.0,30.07,ENE,71,0.0,0.0,80,0.00,,,0.00,,2013-07-30 02:56:00,
2013-07-29 22:08:00,62.0,56.0,30.08,ENE,71,0.0,0.0,81,0.00,,,0.00,,2013-07-30 03:08:00,
2013-07-29 22:18:00,62.0,56.0,30.08,ENE,71,0.0,0.0,81,0.00,,,0.00,,2013-07-30 03:18:00,
2013-07-29 22:25:00,62.0,57.0,30.07,ENE,71,0.0,0.0,83,0.00,,,0.00,,2013-07-30 03:25:00,
2013-07-29 22:34:00,61.0,56.0,30.07,ENE,71,0.0,0.0,85,0.00,,,0.00,,2013-07-30 03:34:00,
2013-07-29 22:44:00,61.0,56.0,30.07,ENE,71,0.0,0.0,85,0.00,,,0.00,,2013-07-30 03:44:00,
2013-07-29 22:56:00,61.0,56.0,30.07,ENE,71,0.0,0.0,85,0.00,,,0.00,,2013-07-30 03:56:00,
2013-07-29 23:03:00,61.0,57.0,30.07,ENE,71,0.0,0.0,86,0.00,,,0.00,,2013-07-30 04:03:00,
2013-07-29 23:13:00,61.0,57.0,30.07,ENE,71,0.0,0.0,86,0.00,,,0.00,,2013-07-30 04:13:00,
2013-07-29 23:23:00,60.0,56.0,30.07,ENE,71,0.0,0.0,87,0.00,,,0.00,,2013-07-30 04:23:00,
2013-07-29 23:33:00,60.0,56.0,30.07,ENE,71,0.0,0.0,87,0.00,,,0.00,,2013-07-30 04:33:00,
2013-07-29 23:43:00,60.0,56.0,30.07,ENE,71,0.0,0.0,88,0.00,,,0.00,,2013-07-30 04:43:00,
2013-07-29 23:53:00,59.0,56.0,30.07,ENE,71,0.0,0.0,90,0.00,,,0.00,,2013-07-30 04:53:00,